{"data":{"norad_id":61689,"epoch":"2026-09-21T21:01:00.365952Z","epoch_age_seconds":69324,"freshness":"FRESH","line1":"1 61689U 24195C   26264.87569868 -.00000575  00000+0  11290-6 0  9994","line2":"2 61689  53.1583 139.3703 0000879  94.4863 265.6255 15.69706700109845","mean_motion":15.697067,"eccentricity":8.79e-5,"inclination_deg":53.1583,"raan_deg":139.3703,"arg_perigee_deg":94.4863,"mean_anomaly_deg":265.6255,"bstar":1.129e-7,"rev_number":10984,"period_min":91.736883075036,"perigee_km":359.14393471942,"apogee_km":360.32845282689,"semimajor_km":6737.8731937732,"source":"CELESTRAK","updated_at":"2026-09-22T09:00:49.406285Z"}}